Regional Weather Roundup
Issued by NWS Midland/Odessa, TX

Home | Current Version | Previous Version | Text Only | Print | Product List | Glossary On
Versions: 1 2 3 4 5 6 7 8 9 10 11 12 13 14 15 16 17 18 19 20 21 22 23 24 25 26 27 28 29 30 31 32 33 34 35 36 37 38 39 40 41 42 43 44 45 46 47 48 49 50
000
ASUS44 KMAF 231610
RWRMAF
MIDLAND AREA WEATHER ROUNDUP
NATIONAL WEATHER SERVICE MIDLAND TX
1000 AM CST THU FEB 23 2017

...IN SOUTHWEST TEXAS AND SOUTHEAST NEW MEXICO...

CITY           SKY/WX    TMP DP  RH WIND       PRES   REMARKS
ALPINE         SUNNY     72  22  15 SW16      29.91S
ANDREWS        FAIR      72  29  20 W13G24    29.69F
ARTESIA        SUNNY     70  32  24 SW29G35   29.67S
BIG SPRING     SUNNY     69  34  28 SW9       29.70F
CARLSBAD       SUNNY     75  28  17 W28G37    29.67S
DRYDEN           N/A     79  22  12 SW15G21   29.72F
FORT STOCKTON  SUNNY     78  23  13 SW18      29.75S
GUAD PASS      SUNNY     61  28  28 SW44G60   29.75F
HOBBS          SUNNY     72  27  18 SW22G29   29.70F
MARFA          SUNNY     64  24  21 S7        29.90F
MIDLAND AIRPK  SUNNY     73  30  20 SW10      29.70F
MIDLAND INTL   SUNNY     72  27  18 SW14      29.69F
ODESSA         SUNNY     73  25  16 SW17      29.70S
PECOS          SUNNY     70  27  19 SE3       29.70F
PRESIDIO       FAIR      71  22  16 E3        29.85F
SEMINOLE       SUNNY     71  29  21 SW21G26   29.69F
SNYDER         SUNNY     65  37  34 SW10      29.67F
WINK           SUNNY     73  24  16 SW20G26   29.69F
$$
...OTHER STATIONS IN TEXAS...

CITY           SKY/WX    TMP DP  RH WIND       PRES   REMARKS
ABILENE        SUNNY     73  37  27 SW17      29.64F
AMARILLO       CLOUDY    64  35  34 SW20      29.59F
AUSTIN         SUNNY     70  51  51 S10       29.72S
BROWNSVILLE    SUNNY     79  67  66 S16       29.76S
CORPUS CHRISTI SUNNY     74  67  78 S17       29.73F
DALLAS FTW     SUNNY     72  48  42 S14       29.62F
DEL RIO        SUNNY     68  38  33 CALM      29.71S
EL PASO        MOSUNNY   65  31  28 SW22G33   29.79S
HOUSTON INT    SUNNY     73  60  63 S9        29.80R
LUBBOCK        MOSUNNY   72  31  22 SW24G32   29.63S
SAN ANGELO     SUNNY     74  41  30 CALM      29.68F
SAN ANTONIO    SUNNY     70  49  47 VRB5      29.74F
WACO           SUNNY     68  50  52 S14       29.67F
WICHITA FALLS  NOT AVBL
$$
...OTHER LOCATIONS IN NEW MEXICO...

CITY           SKY/WX    TMP DP  RH WIND       PRES   REMARKS
ALAMAGORDO     SUNNY     63  32  31 SW15G28   29.80R
ALBUQUERQUE    MOSUNNY   51  18  27 W26G36    29.70R
CANNON AFB     SUNNY     64  32  29 SW24      29.62F
CLOVIS         SUNNY     64  36  34 SW21G28   29.63F
HOLLOMAN AFB   SUNNY     62  35  35 W7        29.82R
ROSWELL        SUNNY     71  32  23 SW22        N/A
RUIDOSO        SUNNY     52  28  40 SW28G46   29.78F
SANTA FE       PTSUNNY   47  19  33 W25G36    29.68R WCI  39
TRUTH OR CONSE SUNNY     58  23  26 W23G36    29.76R
TUCUMCARI      SUNNY     66  30  26 SW32G41   29.55F
$$




USA.gov is the U.S. government's official web portal to all federal, state and local government web resources and services.